[Iaude] MPEC X58: 2023 XW [a=1.48,e=0.31,i=7.8,H=26.4]

mpec at marsden.cfa.harvard.edu mpec at marsden.cfa.harvard.edu
Tue Dec 5 03:38:56 EST 2023


M.P.E.C. 2023-X58                              Issued 2023 December 5, 08:37 UT

     The Minor Planet Electronic Circulars contain information on unusual
         minor planets, routine data on comets and natural satellites,
         and occasional editorial announcements.  They are published
    on behalf of Division F of the International Astronomical Union by the
          Minor Planet Center, Smithsonian Astrophysical Observatory,
                          Cambridge, MA 02138, U.S.A.
			  
             Prepared using the Tamkin Foundation Computer Network

                              MPC at CFA.HARVARD.EDU
            URL https://www.minorplanetcenter.net/    ISSN 1523-6714

                                    2023 XW                                     


Observations:
     K23X00W  C2023 12 04.31599104 06 21.758+18 50 47.49         21.78wXEX058F51
     K23X00W  C2023 12 04.33190404 06 26.939+18 49 18.08         21.39wXEX058F51
     K23X00W  C2023 12 04.34609304 06 31.551+18 47 58.02         21.50wXEX058F51
     K23X00W*1C2023 12 04.35335204 06 28.357+18 46 52.25         21.21GVEX058G96
     K23X00W 1C2023 12 04.35847804 06 30.056+18 46 21.94         21.41GVEX058G96
     K23X00W  C2023 12 04.36022104 06 36.101+18 46 38.25         21.32wXEX058F51
     K23X00W 1C2023 12 04.36359204 06 31.759+18 45 52.88         21.29GVEX058G96
     K23X00W 1C2023 12 04.36870904 06 33.426+18 45 22.79         21.69GVEX058G96
     K23X00W KC2023 12 04.44495604 06 59.110+18 37 57.90         21.23GVEX058I52
     K23X00W KC2023 12 04.44883504 07 00.460+18 37 34.40         21.91GVEX058I52
     K23X00W KC2023 12 04.45270404 07 01.780+18 37 12.30               VEX058I52
     K23X00W KC2023 12 04.45656604 07 03.120+18 36 49.40               VEX058I52
     K23X00W 1C2023 12 05.33900104 12 15.872+17 16 03.86         21.12GVEX058G96
     K23X00W 1C2023 12 05.33976404 12 16.103+17 15 59.51         20.76GVEX058G96
     K23X00W 1C2023 12 05.34052604 12 16.340+17 15 54.76         21.00GVEX058G96
     K23X00W 1C2023 12 05.34128804 12 16.542+17 15 51.12         21.47GVEX058G96

Observer details:
F51 Pan-STARRS 1, Haleakala.  Observers J. Herman, T. Lowe, P. Minguez, A.
    Schultz, I. Smith.  Measurers K. Chambers, T. de Boer, J. Fairlamb, H.
    Gao, M. Huber, C.-C. Lin, E. Magnier, Y. Ramanjooloo, R. Wainscoat, R.
    Weryk.  1.8-m Ritchey-Chretien + CCD.
G96 Mt. Lemmon Survey.  Observer J. K. Hogan.  Measurers E. C. Beshore, D.
    Fay, J. B. Fazekas, D. C. Fuls, A. R. Gibbs, A. D. Grauer, H. Groeller, J.
    K. Hogan, R. A. Kowalski, S. M. Larson, G. J. Leonard, D. Rankin, R. L.
    Seaman, F. C. Shelly, K. W. Wierzchos.  1.5-m reflector + 10K CCD.
I52 Steward Observatory, Mt. Lemmon Station.  Observer G. J. Leonard.
    Measurers E. C. Beshore, D. Fay, J. B. Fazekas, D. C. Fuls, A. R. Gibbs,
    A. D. Grauer, H. Groeller, J. K. Hogan, R. A. Kowalski, S. M. Larson, G.
    J. Leonard, D. Rankin, R. L. Seaman, F. C. Shelly, K. W. Wierzchos.  1.0-m
    prime focus + CCD.

Orbital elements:
2023 XW                                                  Earth MOID = 0.0541 AU
Epoch 2023 Sept. 13.0 TT = JDT 2460200.5                MPC                     
M 332.12058              (2000.0)            P               Q                  
n   0.54834557     Peri.  147.43045     +0.79012920     -0.59966711             
a   1.4783133      Node   249.93672     +0.52946981     +0.77202605             
e   0.3105789      Incl.    7.76228     +0.30880020     +0.21065406             
P   1.80           H   26.43          G   0.15           U   8                  
Residuals in seconds of arc
231204 F51  0.0   0.1-    231204 G96  0.1+  0.4+    231205 G96  0.0   0.4+
231204 F51  0.1-  0.1-    231204 G96  0.2-  0.1+    231205 G96  0.0   0.2+
231204 F51  0.1+  0.1-    231204 I52  0.1+  0.3+    231205 G96  0.1+  0.4-
231204 G96  0.2-  0.3+    231204 I52  0.3+  0.5-    231205 G96  0.2-  0.1+
231204 G96  0.1-  0.2-    231204 I52  0.1+  0.0
231204 F51  0.2+  0.1-    231204 I52  0.2+  0.3-

Ephemeris:
2023 XW                  a,e,i = 1.48, 0.31, 8                   q = 1.0192
Date    TT    R. A. (2000) Decl.     Delta      r    Elong.  Phase     V
2023 11 05    21 15 53.6 +46 45 56   0.08175 1.0194   107.6    68.0    23.4
...
2023 11 20    01 09 41.2 +46 47 53   0.05700 1.0320   139.1    38.8    21.8
...
2023 11 28    03 13 46.7 +30 53 35   0.06211 1.0464   163.6    15.5    21.3
...
2023 12 04    04 04 19.4 +19 21 30   0.07539 1.0603   171.5     7.9    21.5
2023 12 05    04 10 22.1 +17 47 11   0.07820 1.0629   171.1     8.2    21.6
2023 12 06    04 15 54.5 +16 19 09   0.08115 1.0655   170.4     8.9    21.7
...
2023 12 12    04 41 07.1 +09 29 43   0.1014  1.0827   164.4    14.2    22.4
...
2023 12 20    05 01 48.7 +04 20 55   0.1337  1.1088   157.8    19.6    23.3
...
2024 01 04    05 24 56.7 +01 07 16   0.2071  1.1659   149.1    25.7    24.5

A. U. Tomatic                (C) Copyright 2023 MPC           M.P.E.C. 2023-X58





More information about the Iaude mailing list